TimeEDT,TemperatureF,Dew PointF,Humidity,Sea Level PressureIn,VisibilityMPH,Wind Direction,Wind SpeedMPH,Gust SpeedMPH,PrecipitationIn,Events,Conditions,WindDirDegrees,DateUTC
12:12 AM,57.2,55.4,94,29.80,4.0,SSE,9.2,-,N/A,,Light Drizzle,150,2013-04-24 04:12:00
12:32 AM,57.2,55.4,94,29.78,5.0,SE,8.1,-,N/A,,Overcast,140,2013-04-24 04:32:00
12:52 AM,57.2,55.4,94,29.78,5.0,SSE,6.9,-,N/A,Rain,Light Rain,160,2013-04-24 04:52:00
1:12 AM,57.2,55.4,94,29.77,5.0,South,8.1,-,N/A,Rain,Rain,170,2013-04-24 05:12:00
1:33 AM,57.2,55.4,94,29.77,5.0,South,9.2,-,N/A,Rain,Rain,190,2013-04-24 05:33:00
1:53 AM,57.2,55.4,94,29.75,7.0,South,9.2,-,N/A,Rain,Light Rain,190,2013-04-24 05:53:00
2:13 AM,57.2,55.4,94,29.74,10.0,South,5.8,-,N/A,Rain,Light Rain,180,2013-04-24 06:13:00
2:33 AM,57.2,55.4,94,29.73,7.0,SSW,5.8,-,N/A,Rain,Light Rain,200,2013-04-24 06:33:00
2:54 AM,59.0,55.4,88,29.72,10.0,SSW,11.5,16.1,N/A,,Overcast,200,2013-04-24 06:54:00
3:14 AM,59.0,55.4,88,29.71,10.0,SSW,12.7,-,N/A,,Overcast,210,2013-04-24 07:14:00
3:36 AM,59.0,55.4,88,29.71,10.0,SSW,11.5,-,N/A,,Overcast,210,2013-04-24 07:36:00
3:56 AM,59.0,55.4,88,29.70,10.0,SSW,11.5,-,N/A,,Overcast,210,2013-04-24 07:56:00
4:16 AM,59.0,55.4,88,29.71,10.0,West,10.4,-,N/A,,Overcast,260,2013-04-24 08:16:00
4:31 AM,53.6,51.8,94,29.72,10.0,NW,10.4,17.3,N/A,Rain,Light Rain,310,2013-04-24 08:31:00
4:51 AM,50.0,48.2,94,29.73,7.0,NNW,13.8,20.7,N/A,Rain,Light Rain,330,2013-04-24 08:51:00
5:12 AM,48.2,46.4,93,29.74,7.0,NNW,11.5,-,N/A,Rain,Rain,330,2013-04-24 09:12:00
5:32 AM,48.2,46.4,93,29.75,10.0,NNW,16.1,-,N/A,,Light Drizzle,330,2013-04-24 09:32:00
5:52 AM,46.4,44.6,93,29.76,7.0,NNW,10.4,-,N/A,Rain,Light Rain,340,2013-04-24 09:52:00
6:12 AM,46.4,44.6,93,29.76,5.0,North,9.2,20.7,N/A,Rain,Light Rain,350,2013-04-24 10:12:00
6:32 AM,44.6,42.8,93,29.77,5.0,NNW,12.7,18.4,N/A,Rain,Rain,340,2013-04-24 10:32:00
6:52 AM,44.6,42.8,93,29.77,7.0,NNW,11.5,17.3,N/A,Rain,Light Rain,340,2013-04-24 10:52:00
7:12 AM,44.6,41.0,87,29.78,10.0,North,12.7,20.7,N/A,,Drizzle,350,2013-04-24 11:12:00
7:32 AM,42.8,41.0,93,29.79,10.0,NNW,10.4,-,N/A,,Overcast,330,2013-04-24 11:32:00
7:53 AM,42.8,41.0,93,29.80,10.0,NNW,12.7,17.3,N/A,Rain,Light Rain,330,2013-04-24 11:53:00
8:13 AM,42.8,39.2,87,29.81,7.0,NNW,12.7,19.6,N/A,Rain,Light Rain,340,2013-04-24 12:13:00
8:33 AM,41.0,39.2,93,29.81,2.5,NNW,11.5,-,N/A,Rain,Rain,330,2013-04-24 12:33:00
9:14 AM,41.0,39.2,93,29.80,10.0,North,15.0,-,N/A,,Light Drizzle,360,2013-04-24 13:14:00
9:34 AM,41.0,37.4,87,29.81,10.0,North,10.4,-,N/A,,Light Drizzle,360,2013-04-24 13:34:00
9:54 AM,39.2,37.4,93,29.81,5.0,NNW,11.5,-,N/A,Rain,Rain,340,2013-04-24 13:54:00
10:14 AM,39.2,37.4,93,29.80,4.0,NNW,11.5,-,N/A,Rain,Rain,330,2013-04-24 14:14:00
10:34 AM,39.2,37.4,93,29.81,3.0,NNW,11.5,-,N/A,Rain,Rain,340,2013-04-24 14:34:00
10:54 AM,39.2,37.4,93,29.82,4.0,NNW,9.2,-,N/A,Rain,Rain,330,2013-04-24 14:54:00
11:15 AM,39.2,37.4,93,29.83,4.0,NNW,8.1,-,N/A,Rain,Rain,330,2013-04-24 15:15:00
11:35 AM,39.2,37.4,93,29.84,5.0,NNW,11.5,-,N/A,Rain,Rain,340,2013-04-24 15:35:00
11:55 AM,37.4,37.4,100,29.84,3.0,NW,11.5,-,N/A,Rain,Rain,320,2013-04-24 15:55:00
12:15 PM,37.4,37.4,100,29.83,5.0,NW,10.4,-,N/A,Rain,Light Rain,320,2013-04-24 16:15:00
12:35 PM,37.4,37.4,100,29.82,10.0,NNW,10.4,-,N/A,Rain,Light Rain,330,2013-04-24 16:35:00
12:55 PM,37.4,37.4,100,29.84,10.0,NW,10.4,-,N/A,,Light Drizzle,310,2013-04-24 16:55:00
1:15 PM,37.4,35.6,93,29.86,5.0,NW,16.1,20.7,N/A,,Drizzle,310,2013-04-24 17:15:00
1:36 PM,37.4,35.6,93,29.87,2.5,NW,13.8,18.4,N/A,Rain,Light Rain,310,2013-04-24 17:36:00
2:16 PM,37.4,35.6,93,29.88,7.0,NW,13.8,20.7,N/A,Rain,Light Rain,310,2013-04-24 18:16:00
2:36 PM,37.4,35.6,93,29.89,3.0,WNW,13.8,19.6,N/A,Rain,Light Rain,300,2013-04-24 18:36:00
2:56 PM,37.4,35.6,93,29.88,4.0,NW,17.3,25.3,N/A,Rain,Light Rain,320,2013-04-24 18:56:00
3:16 PM,37.4,37.4,100,29.90,7.0,NW,9.2,-,N/A,Rain,Light Rain,310,2013-04-24 19:16:00
3:31 PM,39.2,35.6,87,29.91,10.0,WNW,13.8,18.4,N/A,Rain,Light Rain,300,2013-04-24 19:31:00
3:52 PM,39.2,35.6,87,29.92,7.0,NW,12.7,23.0,N/A,Rain,Light Rain,310,2013-04-24 19:52:00
4:12 PM,39.2,37.4,93,29.94,10.0,WNW,13.8,21.9,N/A,Rain,Light Rain,290,2013-04-24 20:12:00
4:32 PM,39.2,37.4,93,29.95,10.0,WNW,17.3,20.7,N/A,Rain,Light Rain,290,2013-04-24 20:32:00
4:52 PM,39.2,37.4,93,29.95,7.0,WNW,10.4,-,N/A,,Light Drizzle,300,2013-04-24 20:52:00
5:12 PM,39.2,35.6,87,29.96,7.0,WNW,11.5,26.5,N/A,Rain,Light Rain,300,2013-04-24 21:12:00
5:32 PM,42.8,37.4,81,29.97,10.0,West,15.0,-,N/A,,Overcast,270,2013-04-24 21:32:00
5:52 PM,42.8,37.4,81,29.97,10.0,West,15.0,-,N/A,,Mostly Cloudy,280,2013-04-24 21:52:00
6:13 PM,42.8,37.4,81,29.98,10.0,West,12.7,18.4,N/A,,Scattered Clouds,280,2013-04-24 22:13:00
6:33 PM,42.8,37.4,81,30.00,10.0,West,12.7,-,N/A,,Scattered Clouds,280,2013-04-24 22:33:00
6:53 PM,42.8,35.6,76,30.00,10.0,West,12.7,18.4,N/A,,Overcast,280,2013-04-24 22:53:00
7:13 PM,44.6,35.6,71,30.02,10.0,West,12.7,-,N/A,,Overcast,280,2013-04-24 23:13:00
7:33 PM,44.6,37.4,76,30.02,10.0,West,8.1,-,N/A,,Overcast,260,2013-04-24 23:33:00
7:53 PM,42.8,35.6,76,30.03,10.0,West,8.1,-,N/A,,Overcast,260,2013-04-24 23:53:00
8:13 PM,42.8,33.8,70,30.04,10.0,West,11.5,-,N/A,,Mostly Cloudy,260,2013-04-25 00:13:00
8:33 PM,42.8,33.8,70,30.05,10.0,West,10.4,16.1,N/A,,Mostly Cloudy,270,2013-04-25 00:33:00
8:54 PM,42.8,30.2,61,30.07,10.0,West,11.5,-,N/A,,Mostly Cloudy,270,2013-04-25 00:54:00
9:14 PM,41.0,30.2,65,30.08,10.0,West,9.2,-,N/A,,Scattered Clouds,260,2013-04-25 01:14:00
9:34 PM,39.2,30.2,70,30.09,10.0,WSW,6.9,-,N/A,,Clear,250,2013-04-25 01:34:00
9:54 PM,39.2,32.0,75,30.10,10.0,SW,6.9,-,N/A,,Clear,230,2013-04-25 01:54:00
10:54 PM,37.4,32.0,81,30.12,10.0,WSW,5.8,-,N/A,,Clear,240,2013-04-25 02:54:00
11:14 PM,37.4,32.0,81,30.14,10.0,WSW,6.9,-,N/A,,Clear,240,2013-04-25 03:14:00
11:34 PM,37.4,30.2,75,30.14,10.0,WSW,8.1,-,N/A,,Clear,240,2013-04-25 03:34:00
11:55 PM,37.4,30.2,75,30.14,10.0,WSW,9.2,-,N/A,,Clear,240,2013-04-25 03:55:00